LA8QT Lodingen NO current weather conditions

sailwx.info

Wind from 346 at 7 knots

Air temperature 11.1° C
Dewpoint 5.2° C

Last reported at 2017-Jun-23 22:59 UTC.
Time now 2017-Jun-23 23:52 UTC

Location: N 68°28' E 016°04'.
View on Google Maps.

See reports from other nearby stations

  
Tides and Currents Weather Stations Pressure Air Temp Water Temp Dewpoint Dewpoint Depression Visibility Wind Speed Wind Dir Waves Ship Positions
date/time (UTC)wind fromknots sea level pressurealtimeterstation pressurevisibilityair tempwater tempwave heightnotes
2017-Jun-23 22:59 346 7 11.1
2017-Jun-23 22:44 324 7 11.1
2017-Jun-23 22:29 335 9 11.1
2017-Jun-23 22:14 324 8 11.1
2017-Jun-23 21:59 295 9 11.7
2017-Jun-23 21:44 295 8 11.7
2017-Jun-23 21:29 295 8 11.7
2017-Jun-23 21:14 295 8 11.7
2017-Jun-23 20:59 330 10 11.7
2017-Jun-23 20:44 295 10 11.7
2017-Jun-23 20:29 295 9 11.7
2017-Jun-23 20:14 295 9 11.7
2017-Jun-23 19:59 327 8 12.2
2017-Jun-23 19:44 295 9 12.8
2017-Jun-23 19:29 314 7 12.2
2017-Jun-23 19:14 317 8 12.2
2017-Jun-23 18:59 314 6 12.8
2017-Jun-23 18:44 319 7 13.3
2017-Jun-23 18:29 317 7 13.3
2017-Jun-23 18:13 331 8 13.9
2017-Jun-23 17:58 295 7 13.9
2017-Jun-23 17:43 321 7 14.4
2017-Jun-23 17:28 295 8 14.4
2017-Jun-23 17:13 295 7 14.4
2017-Jun-23 16:59 335 7 14.4
2017-Jun-23 16:43 332 8 14.4
2017-Jun-23 16:28 009 6 15.0
2017-Jun-23 16:13 295 7 14.4
2017-Jun-23 15:58 325 6 15.0
2017-Jun-23 15:43 324 7 15.0
2017-Jun-23 15:28 325 7 15.0
2017-Jun-23 15:13 295 7 15.0
2017-Jun-23 14:58 295 7 15.0
2017-Jun-23 14:43 348 8 15.0
2017-Jun-23 14:28 341 7 15.0
2017-Jun-23 14:13 332 7 15.0
2017-Jun-23 13:58 011 6 15.0
2017-Jun-23 13:43 295 7 15.0
2017-Jun-23 13:28 295 8 15.0
2017-Jun-23 13:13 295 6 15.0
2017-Jun-23 12:58 295 6 14.4
2017-Jun-23 12:43 295 6 14.4
2017-Jun-23 12:28 295 6 14.4
2017-Jun-23 12:13 333 7 14.4
2017-Jun-23 11:58 295 6 13.9
2017-Jun-23 11:43 002 6 13.9
2017-Jun-23 11:28 295 6 13.9
2017-Jun-23 11:20 354 9 13.3
2017-Jun-23 11:13 295 6 13.3
2017-Jun-23 11:07 295 9 13.3
2017-Jun-23 11:00 023 7 13.3
2017-Jun-23 10:54 295 7 13.3
2017-Jun-23 10:48 295 7 12.8
2017-Jun-23 10:42 295 6 12.8
2017-Jun-23 10:35 343 8 12.8
2017-Jun-23 10:28 018 8 12.8
2017-Jun-23 10:21 295 8 12.2
2017-Jun-23 10:14 295 7 12.2
2017-Jun-23 10:08 295 8 11.7
2017-Jun-23 10:01 295 7 11.7
2017-Jun-23 09:54 338 6 11.7
2017-Jun-23 09:47 295 6 11.7
2017-Jun-23 09:38 295 6 11.1
2017-Jun-23 09:31 295 8 11.1
2017-Jun-23 09:22 295 7 11.1
2017-Jun-23 09:14 295 7 11.1
2017-Jun-23 09:06 295 7 11.1
2017-Jun-23 08:58 295 7 10.6
2017-Jun-23 08:50 352 7 10.6
2017-Jun-23 08:42 002 8 10.6
2017-Jun-23 08:35 295 9 10.0
2017-Jun-23 08:26 295 9 10.0
2017-Jun-23 08:18 295 9 10.0
2017-Jun-23 08:09 002 8 10.0
2017-Jun-23 08:01 344 8 10.0
2017-Jun-23 07:53 295 8 10.0
2017-Jun-23 07:47 295 6 9.4
2017-Jun-23 07:38 295 7 9.4
2017-Jun-23 07:28 295 7 9.4
2017-Jun-23 07:19 295 7 9.4
2017-Jun-23 07:10 295 6 9.4
2017-Jun-23 07:01 327 6 9.4
2017-Jun-23 06:50 346 6 8.9
2017-Jun-23 06:39 320 6 8.9
2017-Jun-23 06:29 339 6 8.9
2017-Jun-23 06:18 327 6 8.9
2017-Jun-23 06:06 325 5 8.3
2017-Jun-23 05:54 328 6 8.3
2017-Jun-23 05:41 331 6 8.3
2017-Jun-23 03:51 321 6 8.3
2017-Jun-23 00:27 295 7 8.3
2017-Jun-22 23:27 331 6 8.3
2017-Jun-22 23:12 332 7 8.3
2017-Jun-22 22:57 336 6 8.3
2017-Jun-22 22:42 295 8 8.3
2017-Jun-22 22:27 323 7 8.3
2017-Jun-22 22:12 327 7 8.3
2017-Jun-22 21:57 295 8 8.9
2017-Jun-22 21:42 339 9 8.9
2017-Jun-22 21:27 325 6 8.3
2017-Jun-22 21:12 295 6 8.9
2017-Jun-22 20:57 328 7 8.9
2017-Jun-22 20:42 359 6 8.9
2017-Jun-22 20:27 295 7 8.9
2017-Jun-22 20:12 295 7 8.9
2017-Jun-22 19:57 325 7 8.9
2017-Jun-22 19:42 295 7 8.9
2017-Jun-22 19:27 295 7 8.9
2017-Jun-22 19:12 295 6 9.4
2017-Jun-22 18:57 295 6 9.4
2017-Jun-22 18:42 339 8 9.4
2017-Jun-22 18:27 295 8 9.4
2017-Jun-22 18:12 295 9 10.0
2017-Jun-22 17:57 295 7 10.6
2017-Jun-22 17:42 295 8 10.6
2017-Jun-22 17:27 295 8 10.0
2017-Jun-22 17:12 341 7 10.6
2017-Jun-22 16:57 295 6 10.6
2017-Jun-22 16:42 304 8 11.1
2017-Jun-22 16:27 295 8 10.6
2017-Jun-22 16:12 295 8 11.1
2017-Jun-22 15:57 295 7 10.6
2017-Jun-22 15:42 002 6 11.1
2017-Jun-22 15:27 007 6 11.1
2017-Jun-22 15:12 312 8 11.1
2017-Jun-22 14:57 353 8 11.1
2017-Jun-22 14:42 295 6 11.1
2017-Jun-22 14:27 019 9 10.6
2017-Jun-22 14:12 295 7 11.1
2017-Jun-22 13:57 295 7 11.1
2017-Jun-22 13:42 324 9 10.6
2017-Jun-22 13:27 013 7 11.1
2017-Jun-22 13:12 347 8 10.6
2017-Jun-22 12:57 295 7 10.6
2017-Jun-22 12:43 295 10 11.1
2017-Jun-22 12:27 295 13 10.6
2017-Jun-22 12:12 295 10 10.6
2017-Jun-22 11:57 325 9 10.6
2017-Jun-22 11:42 295 8 10.6
2017-Jun-22 11:27 295 8 10.6
2017-Jun-22 11:12 003 10 10.6
2017-Jun-22 10:57 002 6 10.0
2017-Jun-22 10:42 008 6 10.0
2017-Jun-22 10:17 328 6 9.4
2017-Jun-22 09:56 345 7 9.4
2017-Jun-22 09:41 319 8 10.0
2017-Jun-22 09:26 325 7 10.0
2017-Jun-22 09:11 351 6 10.0
2017-Jun-22 08:56 004 7 10.0
2017-Jun-22 08:41 344 6 9.4
2017-Jun-22 08:26 319 10 9.4
2017-Jun-22 08:11 323 9 9.4
2017-Jun-22 07:56 325 7 9.4
2017-Jun-22 07:41 308 9 9.4
2017-Jun-22 07:26 355 8 9.4
2017-Jun-22 07:11 358 10 9.4
2017-Jun-22 06:56 295 8 8.9
2017-Jun-22 06:41 343 8 8.9
2017-Jun-22 06:26 323 10 8.3
2017-Jun-22 06:11 344 7 8.3
2017-Jun-22 05:56 333 7 8.3
2017-Jun-22 05:41 007 7 8.3
2017-Jun-22 05:26 341 7 8.3
2017-Jun-22 05:11 356 8 8.3
2017-Jun-22 04:56 321 8 8.3
2017-Jun-22 04:41 359 7 8.3
2017-Jun-22 04:26 003 8 8.3
2017-Jun-22 04:11 355 9 8.3
2017-Jun-22 03:56 016 8 8.3
2017-Jun-22 03:41 358 9 8.3
2017-Jun-22 03:26 004 7 7.8
2017-Jun-22 03:11 350 8 7.8
2017-Jun-22 02:56 340 7 7.8
2017-Jun-22 02:41 312 8 7.8
2017-Jun-22 02:26 011 6 7.8
2017-Jun-22 02:11 006 7 7.8
2017-Jun-22 01:56 014 6 7.8
2017-Jun-22 01:41 351 6 7.8
2017-Jun-22 01:26 325 7 7.8
2017-Jun-22 01:11 349 7 7.8
2017-Jun-22 00:56 351 10 7.8
2017-Jun-22 00:41 360 6 7.8
2017-Jun-22 00:26 004 5 7.8
2017-Jun-22 00:11 339 7 7.8
2017-Jun-21 23:56 324 5 8.3
2017-Jun-21 23:41 348 0 7.8
2017-Jun-21 23:26 316 5 7.8
2017-Jun-21 23:11 343 7 7.8